Time,TemperatureF,DewpointF,PressureIn,WindDirection,WindDirectionDegrees,WindSpeedMPH,WindSpeedGustMPH,Humidity,HourlyPrecipIn,Conditions,Clouds,dailyrainin,SolarRadiationWatts/m^2,SoftwareType,DateUTC
2013-07-21 00:10:00,61.1,48.4,23.17,ENE,59,1.0,1.0,63,0.00,,,0.00,0,Wunderground v.1.15,2013-07-21 04:10:00,
2013-07-21 00:20:00,60.4,48.6,23.17,NE,55,1.0,1.0,65,0.00,,,0.00,0,Wunderground v.1.15,2013-07-21 04:20:00,
2013-07-21 00:31:00,59.7,48.3,23.17,NE,54,0.0,0.0,66,0.00,,,0.00,0,Wunderground v.1.15,2013-07-21 04:31:00,
2013-07-21 00:40:00,59.1,48.1,23.17,NE,54,0.0,0.0,67,0.00,,,0.00,0,Wunderground v.1.15,2013-07-21 04:40:00,
2013-07-21 00:50:00,58.6,48.1,23.18,NE,48,1.0,1.0,68,0.00,,,0.00,0,Wunderground v.1.15,2013-07-21 04:50:00,
2013-07-21 01:00:00,58.5,48.0,23.18,NNE,30,3.0,3.0,68,0.00,,,0.00,0,Wunderground v.1.15,2013-07-21 05:00:00,
2013-07-21 01:10:00,58.5,47.6,23.18,NNE,19,3.0,3.0,67,0.00,,,0.00,0,Wunderground v.1.15,2013-07-21 05:10:00,
2013-07-21 01:20:00,58.2,46.9,23.18,NNE,24,3.0,3.0,66,0.00,,,0.00,0,Wunderground v.1.15,2013-07-21 05:20:00,
2013-07-21 01:30:00,58.0,47.1,23.18,NNE,30,2.0,5.0,67,0.00,,,0.00,0,Wunderground v.1.15,2013-07-21 05:30:00,
2013-07-21 01:40:00,57.9,47.0,23.18,NNE,14,3.0,3.0,67,0.00,,,0.00,0,Wunderground v.1.15,2013-07-21 05:40:00,
2013-07-21 01:50:00,57.7,47.2,23.18,NNE,19,2.0,2.0,68,0.00,,,0.00,0,Wunderground v.1.15,2013-07-21 05:50:00,
2013-07-21 02:10:00,57.1,47.0,23.19,NNE,13,3.0,7.0,69,0.00,,,0.00,0,Wunderground v.1.15,2013-07-21 06:10:00,
2013-07-21 02:20:00,56.6,46.5,23.19,NNE,26,2.0,5.0,69,0.00,,,0.00,0,Wunderground v.1.15,2013-07-21 06:20:00,
2013-07-21 02:31:00,55.9,46.6,23.19,NNE,24,2.0,2.0,71,0.00,,,0.00,0,Wunderground v.1.15,2013-07-21 06:31:00,
2013-07-21 02:40:00,55.5,46.2,23.19,NNE,28,1.0,2.0,71,0.00,,,0.00,0,Wunderground v.1.15,2013-07-21 06:40:00,
2013-07-21 02:50:00,55.2,46.3,23.19,NNE,28,1.0,1.0,72,0.00,,,0.00,0,Wunderground v.1.15,2013-07-21 06:50:00,
2013-07-21 03:10:00,54.3,46.2,23.19,NNE,28,0.0,0.0,74,0.00,,,0.00,0,Wunderground v.1.15,2013-07-21 07:10:00,
2013-07-21 03:20:00,54.0,45.5,23.19,NNE,28,0.0,0.0,73,0.00,,,0.00,0,Wunderground v.1.15,2013-07-21 07:20:00,
2013-07-21 03:40:00,53.5,45.4,23.19,NNE,28,0.0,0.0,74,0.00,,,0.00,0,Wunderground v.1.15,2013-07-21 07:40:00,
2013-07-21 03:50:00,53.1,45.7,23.19,NNE,28,0.0,0.0,76,0.00,,,0.00,0,Wunderground v.1.15,2013-07-21 07:50:00,
2013-07-21 04:00:00,52.8,46.1,23.19,NNE,28,0.0,0.0,78,0.00,,,0.00,0,Wunderground v.1.15,2013-07-21 08:00:00,
2013-07-21 04:10:00,52.7,46.4,23.19,NNE,28,0.0,0.0,79,0.00,,,0.00,0,Wunderground v.1.15,2013-07-21 08:10:00,
2013-07-21 04:20:00,52.8,46.1,23.19,NNE,28,0.0,0.0,78,0.00,,,0.00,0,Wunderground v.1.15,2013-07-21 08:20:00,
2013-07-21 04:40:00,53.0,46.3,23.20,NNE,28,1.0,1.0,78,0.00,,,0.00,0,Wunderground v.1.15,2013-07-21 08:40:00,
2013-07-21 04:50:00,53.0,46.0,23.20,NNE,26,1.0,4.0,77,0.00,,,0.00,0,Wunderground v.1.15,2013-07-21 08:50:00,
2013-07-21 05:10:00,53.2,45.5,23.20,NNE,17,1.0,1.0,75,0.00,,,0.00,0,Wunderground v.1.15,2013-07-21 09:10:00,
2013-07-21 05:20:00,53.1,45.4,23.20,NNE,17,0.0,0.0,75,0.00,,,0.00,0,Wunderground v.1.15,2013-07-21 09:20:00,
2013-07-21 05:40:00,52.5,45.5,23.20,NNE,16,1.0,1.0,77,0.00,,,0.00,12,Wunderground v.1.15,2013-07-21 09:40:00,
2013-07-21 05:50:00,52.5,45.2,23.20,NNE,17,0.0,1.0,76,0.00,,,0.00,23,Wunderground v.1.15,2013-07-21 09:50:00,
2013-07-21 06:10:00,52.5,45.2,23.20,NNE,17,0.0,0.0,76,0.00,,,0.00,28,Wunderground v.1.15,2013-07-21 10:10:00,
2013-07-21 06:20:00,52.2,44.9,23.20,NNE,17,0.0,0.0,76,0.00,,,0.00,30,Wunderground v.1.15,2013-07-21 10:20:00,
2013-07-21 06:40:00,52.7,45.3,23.20,NNE,17,0.0,0.0,76,0.00,,,0.00,30,Wunderground v.1.15,2013-07-21 10:40:00,
2013-07-21 06:50:00,53.0,44.9,23.20,NNE,17,0.0,0.0,74,0.00,,,0.00,33,Wunderground v.1.15,2013-07-21 10:50:00,
2013-07-21 07:10:00,54.1,45.3,23.21,NNE,26,0.0,0.0,72,0.00,,,0.00,35,Wunderground v.1.15,2013-07-21 11:10:00,
2013-07-21 07:20:00,54.7,45.8,23.21,NNE,29,1.0,1.0,72,0.00,,,0.00,37,Wunderground v.1.15,2013-07-21 11:20:00,
2013-07-21 07:30:00,55.6,46.0,23.21,NNE,29,1.0,1.0,70,0.00,,,0.00,283,Wunderground v.1.15,2013-07-21 11:30:00,
2013-07-21 07:40:00,56.8,45.6,23.21,ENE,76,1.0,1.0,66,0.00,,,0.00,309,Wunderground v.1.15,2013-07-21 11:40:00,
2013-07-21 07:50:00,57.4,45.3,23.21,ENE,71,2.0,3.0,64,0.00,,,0.00,338,Wunderground v.1.15,2013-07-21 11:50:00,
2013-07-21 08:00:00,58.3,45.3,23.21,ENE,69,1.0,1.0,62,0.00,,,0.00,371,Wunderground v.1.15,2013-07-21 12:00:00,
2013-07-21 08:10:00,59.1,46.1,23.21,ENE,70,1.0,1.0,62,0.00,,,0.00,399,Wunderground v.1.15,2013-07-21 12:10:00,
2013-07-21 08:20:00,59.4,45.5,23.21,ENE,69,1.0,1.0,60,0.00,,,0.00,427,Wunderground v.1.15,2013-07-21 12:20:00,
2013-07-21 08:30:00,60.0,44.7,23.21,ENE,63,2.0,2.0,57,0.00,,,0.00,461,Wunderground v.1.15,2013-07-21 12:30:00,
2013-07-21 08:40:00,60.1,44.8,23.21,ENE,75,2.0,2.0,57,0.00,,,0.00,489,Wunderground v.1.15,2013-07-21 12:40:00,
2013-07-21 08:50:00,60.0,45.2,23.21,ENE,63,3.0,4.0,58,0.00,,,0.00,519,Wunderground v.1.15,2013-07-21 12:50:00,
2013-07-21 09:00:00,60.6,43.9,23.21,East,84,2.0,2.0,54,0.00,,,0.00,545,Wunderground v.1.15,2013-07-21 13:00:00,
2013-07-21 09:10:00,60.9,44.6,23.21,East,80,2.0,2.0,55,0.00,,,0.00,571,Wunderground v.1.15,2013-07-21 13:10:00,
2013-07-21 09:20:00,61.4,45.1,23.21,ENE,68,2.0,2.0,55,0.00,,,0.00,599,Wunderground v.1.15,2013-07-21 13:20:00,
2013-07-21 09:40:00,61.5,44.2,23.21,ESE,105,2.0,2.0,53,0.00,,,0.00,650,Wunderground v.1.15,2013-07-21 13:40:00,
2013-07-21 09:50:00,62.0,42.6,23.21,ENE,75,2.0,2.0,49,0.00,,,0.00,679,Wunderground v.1.15,2013-07-21 13:50:00,
2013-07-21 10:10:00,62.8,43.9,23.21,ENE,61,2.0,2.0,50,0.00,,,0.00,722,Wunderground v.1.15,2013-07-21 14:10:00,
2013-07-21 10:20:00,63.3,43.8,23.22,NE,49,2.0,2.0,49,0.00,,,0.00,745,Wunderground v.1.15,2013-07-21 14:20:00,
2013-07-21 10:30:00,64.2,44.6,23.22,SE,129,2.0,2.0,49,0.00,,,0.00,766,Wunderground v.1.15,2013-07-21 14:30:00,
2013-07-21 10:40:00,64.9,43.0,23.22,ENE,63,1.0,1.0,45,0.00,,,0.00,784,Wunderground v.1.15,2013-07-21 14:40:00,
2013-07-21 10:50:00,64.7,43.4,23.22,ENE,64,1.0,1.0,46,0.00,,,0.00,803,Wunderground v.1.15,2013-07-21 14:50:00,
2013-07-21 11:10:00,64.4,43.2,23.22,NE,51,2.0,4.0,46,0.00,,,0.00,838,Wunderground v.1.15,2013-07-21 15:10:00,
2013-07-21 11:20:00,64.4,43.2,23.22,ENE,66,1.0,1.0,46,0.00,,,0.00,854,Wunderground v.1.15,2013-07-21 15:20:00,
2013-07-21 11:40:00,64.4,43.7,23.21,NNE,20,2.0,2.0,47,0.00,,,0.00,882,Wunderground v.1.15,2013-07-21 15:40:00,
2013-07-21 11:50:00,66.0,44.6,23.21,ESE,111,1.0,1.0,46,0.00,,,0.00,888,Wunderground v.1.15,2013-07-21 15:50:00,
2013-07-21 12:10:00,66.8,43.6,23.21,SSW,211,3.0,3.0,43,0.00,,,0.00,907,Wunderground v.1.15,2013-07-21 16:10:00,
2013-07-21 12:20:00,67.3,41.5,23.21,NE,44,2.0,2.0,39,0.00,,,0.00,914,Wunderground v.1.15,2013-07-21 16:20:00,
2013-07-21 12:30:00,67.0,41.9,23.21,ENE,59,3.0,5.0,40,0.00,,,0.00,921,Wunderground v.1.15,2013-07-21 16:30:00,
2013-07-21 12:40:00,67.0,41.9,23.21,NW,314,3.0,6.0,40,0.00,,,0.00,925,Wunderground v.1.15,2013-07-21 16:40:00,
2013-07-21 12:50:00,67.5,41.0,23.21,WNW,301,2.0,4.0,38,0.00,,,0.00,928,Wunderground v.1.15,2013-07-21 16:50:00,
2013-07-21 13:00:00,67.5,41.0,23.21,NNE,16,4.0,4.0,38,0.00,,,0.00,930,Wunderground v.1.15,2013-07-21 17:00:00,
2013-07-21 13:10:00,67.8,42.6,23.21,East,82,3.0,3.0,40,0.00,,,0.00,928,Wunderground v.1.15,2013-07-21 17:10:00,
2013-07-21 13:20:00,68.7,43.4,23.21,South,187,1.0,2.0,40,0.00,,,0.00,926,Wunderground v.1.15,2013-07-21 17:20:00,
2013-07-21 13:40:00,69.8,43.0,23.21,North,360,1.0,1.0,38,0.00,,,0.00,921,Wunderground v.1.15,2013-07-21 17:40:00,
2013-07-21 13:50:00,70.3,42.1,23.21,NW,322,2.0,2.0,36,0.00,,,0.00,914,Wunderground v.1.15,2013-07-21 17:50:00,
2013-07-21 14:01:00,70.5,40.8,23.21,SE,138,1.0,1.0,34,0.00,,,0.00,911,Wunderground v.1.15,2013-07-21 18:01:00,
2013-07-21 14:10:00,71.2,41.4,23.21,SW,225,2.0,2.0,34,0.00,,,0.00,904,Wunderground v.1.15,2013-07-21 18:10:00,
2013-07-21 14:20:00,71.0,39.6,23.21,ENE,69,2.0,2.0,32,0.00,,,0.00,893,Wunderground v.1.15,2013-07-21 18:20:00,
2013-07-21 14:40:00,71.5,41.6,23.20,NE,34,1.0,1.0,34,0.00,,,0.00,870,Wunderground v.1.15,2013-07-21 18:40:00,
2013-07-21 14:50:00,72.9,45.1,23.20,NNW,346,2.0,4.0,37,0.00,,,0.00,854,Wunderground v.1.15,2013-07-21 18:50:00,
2013-07-21 15:10:00,72.9,42.1,23.20,South,170,1.0,2.0,33,0.00,,,0.00,824,Wunderground v.1.15,2013-07-21 19:10:00,
2013-07-21 15:20:00,73.6,41.1,23.20,South,175,1.0,1.0,31,0.00,,,0.00,807,Wunderground v.1.15,2013-07-21 19:20:00,
2013-07-21 15:40:00,72.9,40.5,23.20,WSW,255,2.0,2.0,31,0.00,,,0.00,765,Wunderground v.1.15,2013-07-21 19:40:00,
2013-07-21 15:50:00,73.2,40.7,23.20,South,175,3.0,3.0,31,0.00,,,0.00,745,Wunderground v.1.15,2013-07-21 19:50:00,
2013-07-21 16:10:00,73.6,41.9,23.20,SW,227,3.0,3.0,32,0.00,,,0.00,700,Wunderground v.1.15,2013-07-21 20:10:00,
2013-07-21 16:20:00,73.6,43.5,23.20,SSW,197,2.0,2.0,34,0.00,,,0.00,675,Wunderground v.1.15,2013-07-21 20:20:00,
2013-07-21 16:40:00,74.1,44.7,23.20,SW,232,2.0,2.0,35,0.00,,,0.00,628,Wunderground v.1.15,2013-07-21 20:40:00,
2013-07-21 16:50:00,73.4,45.5,23.20,South,177,4.0,4.0,37,0.00,,,0.00,598,Wunderground v.1.15,2013-07-21 20:50:00,
2013-07-21 17:10:00,73.4,44.8,23.20,SSW,200,4.0,4.0,36,0.00,,,0.00,545,Wunderground v.1.15,2013-07-21 21:10:00,
2013-07-21 17:20:00,73.8,46.6,23.20,WSW,238,2.0,2.0,38,0.00,,,0.00,515,Wunderground v.1.15,2013-07-21 21:20:00,
2013-07-21 17:40:00,73.2,45.4,23.20,WSW,243,3.0,3.0,37,0.00,,,0.00,459,Wunderground v.1.15,2013-07-21 21:40:00,
2013-07-21 17:50:00,73.6,45.7,23.20,SW,233,2.0,4.0,37,0.00,,,0.00,431,Wunderground v.1.15,2013-07-21 21:50:00,
2013-07-21 18:00:00,73.6,45.7,23.20,SSW,208,2.0,2.0,37,0.00,,,0.00,401,Wunderground v.1.15,2013-07-21 22:00:00,
2013-07-21 18:10:00,73.4,45.5,23.20,WSW,240,2.0,6.0,37,0.00,,,0.00,371,Wunderground v.1.15,2013-07-21 22:10:00,
2013-07-21 18:20:00,72.9,45.8,23.20,West,268,3.0,3.0,38,0.00,,,0.00,341,Wunderground v.1.15,2013-07-21 22:20:00,
2013-07-21 18:40:00,72.2,45.2,23.20,SSW,192,2.0,3.0,38,0.00,,,0.00,281,Wunderground v.1.15,2013-07-21 22:40:00,
2013-07-21 18:50:00,72.4,44.6,23.20,SSW,209,2.0,4.0,37,0.00,,,0.00,251,Wunderground v.1.15,2013-07-21 22:50:00,
2013-07-21 19:10:00,71.7,44.7,23.20,SW,230,3.0,3.0,38,0.00,,,0.00,195,Wunderground v.1.15,2013-07-21 23:10:00,
2013-07-21 19:20:00,71.7,44.7,23.20,West,261,2.0,3.0,38,0.00,,,0.00,169,Wunderground v.1.15,2013-07-21 23:20:00,
2013-07-21 19:40:00,71.2,45.6,23.20,SW,219,1.0,1.0,40,0.00,,,0.00,120,Wunderground v.1.15,2013-07-21 23:40:00,
2013-07-21 19:50:00,70.5,46.9,23.20,SSW,205,2.0,2.0,43,0.00,,,0.00,105,Wunderground v.1.15,2013-07-21 23:50:00,
2013-07-21 20:00:00,69.5,46.6,23.20,SW,234,2.0,4.0,44,0.00,,,0.00,30,Wunderground v.1.15,2013-07-22 00:00:00,
2013-07-21 20:10:00,68.8,47.2,23.20,SW,226,2.0,2.0,46,0.00,,,0.00,35,Wunderground v.1.15,2013-07-22 00:10:00,
2013-07-21 20:20:00,68.0,47.0,23.20,SW,226,0.0,0.0,47,0.00,,,0.00,12,Wunderground v.1.15,2013-07-22 00:20:00,
2013-07-21 20:40:00,66.5,46.7,23.20,SW,227,0.0,0.0,49,0.00,,,0.00,0,Wunderground v.1.15,2013-07-22 00:40:00,
2013-07-21 20:50:00,65.9,46.7,23.20,SW,224,1.0,1.0,50,0.00,,,0.00,0,Wunderground v.1.15,2013-07-22 00:50:00,
2013-07-21 21:10:00,64.7,47.2,23.20,SW,224,0.0,0.0,53,0.00,,,0.00,0,Wunderground v.1.15,2013-07-22 01:10:00,
2013-07-21 21:20:00,64.4,46.9,23.20,SW,224,0.0,0.0,53,0.00,,,0.00,0,Wunderground v.1.15,2013-07-22 01:20:00,
2013-07-21 21:40:00,63.9,47.4,23.21,SW,224,0.0,0.0,55,0.00,,,0.00,0,Wunderground v.1.15,2013-07-22 01:40:00,
2013-07-21 21:50:00,63.6,48.1,23.21,SW,224,0.0,0.0,57,0.00,,,0.00,0,Wunderground v.1.15,2013-07-22 01:50:00,
2013-07-21 22:10:00,61.5,49.2,23.20,SW,224,0.0,0.0,64,0.00,,,0.00,0,Wunderground v.1.15,2013-07-22 02:10:00,
2013-07-21 22:20:00,60.8,48.5,23.20,SW,224,0.0,0.0,64,0.00,,,0.00,0,Wunderground v.1.15,2013-07-22 02:20:00,
2013-07-21 22:30:00,60.3,49.3,23.20,SW,224,0.0,0.0,67,0.00,,,0.00,0,Wunderground v.1.15,2013-07-22 02:30:00,
2013-07-21 22:40:00,59.7,49.1,23.21,SW,224,0.0,0.0,68,0.00,,,0.00,0,Wunderground v.1.15,2013-07-22 02:40:00,
2013-07-21 22:50:00,58.9,49.5,23.21,SW,224,0.0,0.0,71,0.00,,,0.00,0,Wunderground v.1.15,2013-07-22 02:50:00,
2013-07-21 23:10:00,57.7,48.7,23.21,SW,224,0.0,0.0,72,0.00,,,0.00,0,Wunderground v.1.15,2013-07-22 03:10:00,
2013-07-21 23:20:00,56.8,48.6,23.21,SW,224,0.0,0.0,74,0.00,,,0.00,0,Wunderground v.1.15,2013-07-22 03:20:00,
2013-07-21 23:30:00,56.6,48.8,23.21,SW,224,0.0,0.0,75,0.00,,,0.00,0,Wunderground v.1.15,2013-07-22 03:30:00,
2013-07-21 23:40:00,55.9,48.4,23.21,SW,224,0.0,0.0,76,0.00,,,0.00,0,Wunderground v.1.15,2013-07-22 03:40:00,
2013-07-21 23:50:00,54.7,48.0,23.21,SW,224,0.0,0.0,78,0.00,,,0.00,0,Wunderground v.1.15,2013-07-22 03:50:00,